TimePST,TemperatureF,Dew PointF,Humidity,Sea Level PressureIn,VisibilityMPH,Wind Direction,Wind SpeedMPH,Gust SpeedMPH,PrecipitationIn,Events,Conditions,WindDirDegrees,DateUTC
12:54 AM,63.0,55.9,78,29.99,5.0,SSE,18.4,27.6,N/A,,Haze,160,2012-11-30 08:54:00
1:05 AM,62.6,55.4,77,29.95,10.0,SSE,13.8,23.0,N/A,,Mostly Cloudy,160,2012-11-30 09:05:00
1:25 AM,64.4,55.4,73,29.96,10.0,South,12.7,25.3,N/A,,Overcast,170,2012-11-30 09:25:00
1:54 AM,64.9,55.0,70,29.96,10.0,SE,15.0,31.1,N/A,,Overcast,140,2012-11-30 09:54:00
2:54 AM,64.0,55.0,73,29.96,7.0,SSE,20.7,33.4,0.01,,Overcast,150,2012-11-30 10:54:00
3:54 AM,64.0,55.0,73,29.94,10.0,SSE,11.5,21.9,0.02,,Overcast,150,2012-11-30 11:54:00
4:54 AM,63.0,55.9,78,29.93,6.0,SSE,13.8,21.9,0.03,,Haze,150,2012-11-30 12:54:00
5:54 AM,61.0,55.9,83,29.93,3.0,SSE,6.9,18.4,0.07,Rain,Rain,150,2012-11-30 13:54:00
6:54 AM,62.1,57.9,86,29.93,4.0,SE,15.0,20.7,0.27,Rain,Rain,130,2012-11-30 14:54:00
7:54 AM,62.1,57.9,86,29.94,3.0,South,10.4,21.9,0.15,Rain,Rain,180,2012-11-30 15:54:00
7:58 AM,62.6,57.2,82,29.91,1.8,SSE,15.0,23.0,0.10,Rain,Rain,160,2012-11-30 15:58:00
8:10 AM,62.6,59.0,88,29.90,1.2,SSW,10.4,20.7,0.32,Rain,Rain,200,2012-11-30 16:10:00
8:25 AM,62.6,59.0,88,29.91,2.5,SSE,13.8,19.6,0.44,Rain,Rain,160,2012-11-30 16:25:00
8:33 AM,62.6,59.0,88,29.91,4.0,SE,16.1,20.7,0.48,Rain,Rain,140,2012-11-30 16:33:00
8:54 AM,62.1,57.9,86,29.96,5.0,South,12.7,21.9,0.57,Rain,Rain,170,2012-11-30 16:54:00
9:54 AM,61.0,55.9,83,29.96,3.0,South,6.9,-,0.24,Rain,Rain,170,2012-11-30 17:54:00
10:12 AM,60.8,55.4,82,29.95,2.5,South,11.5,19.6,0.04,Rain,Rain,180,2012-11-30 18:12:00
10:38 AM,59.0,55.4,88,29.95,3.0,South,8.1,-,0.12,Rain,Rain,170,2012-11-30 18:38:00
10:46 AM,59.0,55.4,88,29.95,2.0,South,6.9,-,0.15,Rain,Rain,180,2012-11-30 18:46:00
10:54 AM,59.0,55.9,90,30.00,2.5,South,6.9,-,0.18,Rain,Rain,170,2012-11-30 18:54:00
11:03 AM,59.0,55.4,88,29.97,3.0,South,5.8,-,0.02,Rain,Rain,170,2012-11-30 19:03:00
11:17 AM,59.0,55.4,88,29.97,2.5,South,4.6,-,0.05,Rain,Rain,170,2012-11-30 19:17:00
11:26 AM,59.0,55.4,88,29.97,3.0,South,8.1,-,0.07,Rain,Rain,180,2012-11-30 19:26:00
11:42 AM,59.0,55.4,88,29.98,1.8,SSW,4.6,-,0.14,Rain,Rain,200,2012-11-30 19:42:00
11:54 AM,57.9,55.9,93,30.02,1.0,Variable,6.9,-,0.25,Rain,Rain,0,2012-11-30 19:54:00
12:03 PM,60.8,55.4,82,30.00,3.0,SSW,11.5,17.3,0.02,Rain,Rain,200,2012-11-30 20:03:00
12:54 PM,59.0,55.9,90,29.97,8.0,SE,12.7,-,0.10,Rain,Rain,140,2012-11-30 20:54:00
1:54 PM,61.0,55.0,81,29.96,10.0,SE,6.9,-,0.06,Rain,Rain,140,2012-11-30 21:54:00
2:54 PM,62.1,53.1,72,29.98,10.0,SSW,13.8,17.3,0.00,,Overcast,200,2012-11-30 22:54:00
3:54 PM,61.0,53.1,75,30.01,10.0,South,10.4,-,N/A,,Overcast,190,2012-11-30 23:54:00
4:54 PM,60.1,53.1,78,30.04,10.0,SSW,9.2,16.1,N/A,,Overcast,200,2012-12-01 00:54:00
5:54 PM,60.1,53.1,78,30.07,10.0,South,5.8,-,N/A,,Overcast,180,2012-12-01 01:54:00
6:54 PM,59.0,53.1,81,30.08,10.0,SSE,3.5,-,N/A,,Overcast,160,2012-12-01 02:54:00
7:54 PM,57.9,52.0,81,30.09,10.0,Calm,Calm,-,N/A,,Mostly Cloudy,0,2012-12-01 03:54:00
8:54 PM,55.9,52.0,87,30.09,10.0,ESE,3.5,-,N/A,,Clear,110,2012-12-01 04:54:00
9:54 PM,54.0,52.0,93,30.10,10.0,ENE,4.6,-,N/A,,Mostly Cloudy,70,2012-12-01 05:54:00
10:54 PM,53.1,51.1,93,30.11,10.0,East,4.6,-,N/A,,Clear,80,2012-12-01 06:54:00
11:54 PM,52.0,50.0,93,30.10,10.0,East,6.9,-,N/A,,Clear,90,2012-12-01 07:54:00